Weather in Molodezhnoe

Russia / Republic of Crimea     45°00′20″N   34°03′14″E
temp.,
°C
wind,
m/s
gust,
m/s
humid.,
%
clouds,
%
prec.,
mm/h
press.,
hPa
HPBL,
m
27 february, sat
sat2700:00+6ssw510830 0.0 1023250
03:00+5ssw512870 0.0 1022268
06:00+5ssw510850 0.0 1020229
09:00+6ssw611790 0.0 1020350
12:00+10wsw79690 0.0 1019606
15:00+11wsw68720 0.0 1018571
18:00+8wsw458626 0.0 1017330
21:00+7nnw359362 0.2 1018350
28 february, sun
sun2800:00+5n5794100 3.3 1018468
03:00+3nnw5789100 4.0 1019564
06:00+3nw358598 0.1 1020457
09:00+2nw469199 0.5 1021481
12:00+2nw4694100 0.9 1021468
15:00+4nw456997 1.1 1022946
18:00+3nw3681100 0.3 1022759
21:00+2wnw258398 0.6 1024380
1 march, mon
mon100:00+2wnw248797 0.3 1025257
03:00+1nw239799 0.4 1025198
06:000wnw0197100 0.1 102599
09:00+1wnw119299 0.3 1026189
12:00+3nnw326592 0.1 1027866
15:00+4nnw236196 0.2 1027986
18:00+3nnw2263100 0.1 1027935
21:00+2nne2373100 0.1 1029106
2 march, tue
tue200:000ene118566 0.1 103021
03:000ne118633 0.1 103021
06:000ene11880 0.0 103021
09:00+1ne00780 0.0 1031186
12:00+4wnw33600 0.0 1031945
15:00+5w54639 0.0 1029936
18:00+3w577717 0.0 1027633
21:00+2sw478553 0.0 1027339
3 march, wed
wed300:00+3sw588798 0.0 1026329
03:00+4sw489299 0.0 1025320
06:00+2wnw119674 0.0 102424
09:00+3nne129041 0.0 1026145
12:00+7nnw456429 0.1 10271162
15:00+8nnw454730 0.1 10271341
18:00+6n35520 0.0 1027320
21:00+3n12630 0.0 102922